Moosic, PA

6:57 AM EDT on August 28, 2016 (GMT -0400)
Wilkes-Barre-Scranton International

Weather History for KAVP - February, 2013

Change the Weather History Date:

Saturday, February 23, 2013

  Actual Average Record
Temperature  
Mean Temperature 39 °F 30 °F  
Max Temperature 45 °F 39 °F 69 °F (1985)
Min Temperature 32 °F 22 °F -3 °F (2015)
Degree Days  
Heating Degree Days 26 35  
Month to date heating degree days 860 846  
Since 1 July heating degree days 4077 4437  
Cooling Degree Days 0 0  
Month to date cooling degree days 0 0  
Year to date cooling degree days 0 0  
Moisture  
Dew Point 32 °F    
Average Humidity 82    
Maximum Humidity 92    
Minimum Humidity 72    
Precipitation  
Precipitation 0.01 in 0.07 in 0.72 in (1981)
Month to date precipitation 0.70 1.68  
Year to date precipitation 2.72 4.05  
Sea Level Pressure  
Sea Level Pressure 30.01 in    
Wind  
Wind Speed 3 mph (ESE)    
Max Wind Speed 8 mph    
Max Gust Speed 14 mph    
Visibility 10 miles    
Events      
T = Trace of Precipitation, MM = Missing Value Source: NWS Daily Summary

Daily Weather History Graph

Daily Weather History Graph

Search for Another Location

Airport or City:

Trip Planner

Search our weather history database for the weather conditions in past years. The results will help you decide how hot, cold, wet, or windy it might be!

Date:

Astronomy

Feb. 23, 2013 Rise Set
Actual Time 6:46 AM EST 5:46 PM EST
Civil Twilight 6:18 AM EST 6:14 PM EST
Nautical Twilight 5:46 AM EST 6:46 PM EST
Astronomical Twilight 5:14 AM EST 7:18 PM EST
Moon 3:54 PM EST (2/23) 5:08 AM EST (2/23)
Length of Visible Light 11h 56m
Length of Day
11h 00m
Waxing Gibbous, 95% of the Moon is Illuminated
Feb 23
Waxing Gibbous
Feb 25
Full
Mar 4
Last Quarter
Mar 11
New
Mar 19
First Quarter

Hourly Weather History & Observations

Time (EST) Temp. Windchill Dew Point Humidity Pressure Visibility Wind Dir Wind Speed Gust Speed Precip Events Conditions
12:31 AM 32.0 °F 27.5 °F 24.8 °F 75% 30.17 in 10.0 mi Variable 4.6 mph - N/A   Overcast
12:54 AM 32.0 °F - 25.0 °F 75% 30.20 in 10.0 mi Calm Calm - N/A   Overcast
1:31 AM 33.8 °F 28.6 °F 26.6 °F 75% 30.16 in 10.0 mi South 5.8 mph - N/A   Overcast
1:43 AM 33.8 °F 28.6 °F 26.6 °F 75% 30.15 in 10.0 mi Variable 5.8 mph - N/A   Overcast
1:54 AM 33.1 °F 26.9 °F 26.1 °F 75% 30.17 in 10.0 mi South 6.9 mph - N/A   Overcast
2:54 AM 33.1 °F 26.9 °F 27.0 °F 78% 30.14 in 10.0 mi South 6.9 mph - N/A   Overcast
3:35 AM 33.8 °F 28.6 °F 28.4 °F 81% 30.12 in 10.0 mi South 5.8 mph - N/A   Overcast
3:54 AM 33.1 °F 26.9 °F 28.0 °F 82% 30.12 in 10.0 mi South 6.9 mph - N/A   Overcast
4:54 AM 34.0 °F 28.8 °F 28.9 °F 82% 30.11 in 10.0 mi Variable 5.8 mph - N/A   Overcast
5:54 AM 33.1 °F 30.0 °F 28.0 °F 82% 30.09 in 10.0 mi North 3.5 mph - N/A   Overcast
6:54 AM 33.1 °F 30.0 °F 28.9 °F 85% 30.08 in 10.0 mi Variable 3.5 mph - N/A   Overcast
7:54 AM 34.0 °F 31.0 °F 30.0 °F 85% 30.08 in 10.0 mi NNW 3.5 mph - N/A   Overcast
8:54 AM 36.0 °F 33.3 °F 30.9 °F 82% 30.06 in 10.0 mi North 3.5 mph - N/A   Overcast
9:54 AM 37.0 °F - 32.0 °F 82% 30.02 in 10.0 mi Calm Calm - N/A   Overcast
10:54 AM 39.9 °F 37.8 °F 34.0 °F 79% 29.99 in 10.0 mi Variable 3.5 mph - 0.01 in   Overcast
11:54 AM 39.9 °F - 35.1 °F 83% 29.99 in 10.0 mi Calm Calm - N/A   Overcast
12:54 PM 41.0 °F - 35.1 °F 79% 29.97 in 10.0 mi Calm Calm - N/A   Overcast
1:54 PM 42.1 °F 38.4 °F 36.0 °F 79% 29.94 in 10.0 mi Variable 5.8 mph - N/A   Overcast
2:54 PM 44.6 °F 43.1 °F 37.4 °F 76% 29.90 in 10.0 mi Variable 3.5 mph - N/A   Overcast
3:54 PM 44.1 °F 42.5 °F 37.0 °F 76% 29.90 in 10.0 mi Variable 3.5 mph - N/A   Overcast
4:54 PM 43.0 °F 40.3 °F 37.0 °F 80% 29.88 in 10.0 mi Variable 4.6 mph - N/A   Overcast
5:54 PM 42.1 °F - 37.0 °F 82% 29.87 in 10.0 mi Calm Calm - N/A   Overcast
6:54 PM 41.0 °F - 37.0 °F 86% 29.88 in 10.0 mi Calm Calm - N/A   Overcast
7:54 PM 41.0 °F 39.0 °F 36.0 °F 82% 29.88 in 10.0 mi East 3.5 mph - N/A   Overcast
8:54 PM 39.0 °F 35.7 °F 35.1 °F 86% 29.87 in 10.0 mi NE 4.6 mph - N/A   Overcast
9:54 PM 37.9 °F 35.5 °F 35.1 °F 89% 29.86 in 10.0 mi ENE 3.5 mph - N/A   Overcast
10:54 PM 37.9 °F - 35.1 °F 89% 29.85 in 10.0 mi Calm Calm - N/A   Overcast
11:54 PM 37.0 °F 34.5 °F 34.0 °F 89% 29.83 in 9.0 mi East 3.5 mph - N/A   Overcast